No particular awareness of the weather is required.    There are no Weather-warnings


Meteo18 Weather Cam more information Meteo18 Weather Cam


Thunder radar more information blitzortung!


Rain radar more information rain snow radar


Visit our other weather sites:

Template documentation
and downloads

And another site



Weather Underground History page Text

Daily Summary for January 28, 2017 Units:  English    Metric   Both
« Previous Day
Next Day »
Daily Weekly Monthly Yearly Custom
  High: Low: Average:
Temperature: TemperatureC °F -0.4 °F 5.4 °F
Dew Point: DewpointC °F -0.8 °F 4 °F
Humidity: Humidity % 69 % 91 %
Wind Speed: WindSpeedKMH mph 0.0 mph 1.9 mph
Wind Gust: WindSpeedGustKMH mph - -
Wind:- - South
Pressure: PressurehPa in 1014.4 in -
Precipitation: 7.6 in    
Historical Graphs
 
 
Tabular Data for January 28, 2017
Time Temperature Dew Point Pressure Wind Wind Speed Wind Gust Humidity Rainfall Rate (Hourly)
TemperatureC °F DewpointC °F PressurehPa in Calm     Humidity % HourlyPrecipMM in
00:07 7.7 °F 2.4 °F 1014.4 in ESE 1.6 mph 9.7 mph 69 % 0.0 in
00:12 7.6 °F 2.5 °F 1014.4 in SE 1.6 mph 9.7 mph 70 % 0.0 in
00:17 7.5 °F 2.4 °F 1014.8 in SE 4.8 mph 11.3 mph 70 % 0.0 in
00:22 7.4 °F 2.3 °F 1014.8 in ESE 3.2 mph 11.3 mph 70 % 0.0 in
00:32 7.4 °F 2.3 °F 1014.4 in SE 1.6 mph 9.7 mph 70 % 0.0 in
00:42 7.6 °F 2.5 °F 1014.4 in ESE 1.6 mph 8.0 mph 70 % 0.0 in
00:52 7.5 °F 2.4 °F 1014.4 in Calm   8.0 mph 70 % 0.0 in
00:57 7.4 °F 2.3 °F 1014.4 in Calm   6.4 mph 70 % 0.0 in
01:02 7.4 °F 2.3 °F 1014.4 in Calm   4.8 mph 70 % 0.0 in
01:12 7.5 °F 2.4 °F 1014.4 in Calm   4.8 mph 70 % 0.0 in
01:17 7.6 °F 2.5 °F 1014.4 in East 4.8 mph 4.8 mph 70 % 0.0 in
01:22 7.6 °F 2.7 °F 1014.4 in SE 4.8 mph 6.4 mph 71 % 0.0 in
01:27 7.6 °F 2.9 °F 1014.4 in ESE 3.2 mph 11.3 mph 72 % 0.0 in
01:32 7.6 °F 2.9 °F 1014.4 in SE 3.2 mph 11.3 mph 72 % 0.0 in
01:37 7.6 °F 3.1 °F 1014.4 in SE 4.8 mph 11.3 mph 73 % 0.0 in
01:42 7.6 °F 3.1 °F 1014.4 in SSE 1.6 mph 14.5 mph 73 % 0.0 in
01:47 7.4 °F 3.1 °F 1014.4 in SE 1.6 mph 14.5 mph 74 % 0.0 in
01:52 7.4 °F 3.3 °F 1014.4 in SE 14.5 mph 14.5 mph 75 % 0.0 in
01:57 7.4 °F 3.4 °F 1014.4 in SSE 3.2 mph 11.3 mph 76 % 0.0 in
02:02 7.4 °F 3.4 °F 1014.4 in South 6.4 mph 16.1 mph 76 % 0.0 in
02:07 7.4 °F 3.4 °F 1014.4 in South 1.6 mph 16.1 mph 76 % 0.0 in
02:12 7.3 °F 3.5 °F 1014.8 in SW 3.2 mph 16.1 mph 77 % 0.0 in
02:17 7.2 °F 3.4 °F 1014.4 in Calm   11.3 mph 77 % 0.0 in
02:22 7.1 °F 3.5 °F 1014.4 in ESE 6.4 mph 11.3 mph 78 % 0.0 in
02:27 7.0 °F 3.6 °F 1014.4 in SSE 1.6 mph 11.3 mph 79 % 0.0 in
02:32 7.1 °F 3.5 °F 1014.4 in ESE 4.8 mph 11.3 mph 78 % 0.0 in
02:37 7.1 °F 3.5 °F 1014.8 in South 6.4 mph 8.0 mph 78 % 0.0 in
02:42 7.1 °F 3.7 °F 1014.4 in South 3.2 mph 8.0 mph 79 % 0.0 in
02:47 7.1 °F 3.7 °F 1014.8 in South 1.6 mph 8.0 mph 79 % 0.0 in
02:52 7.1 °F 3.5 °F 1014.8 in SE 1.6 mph 8.0 mph 78 % 0.0 in
02:57 7.1 °F 3.5 °F 1014.8 in SSE 1.6 mph 9.7 mph 78 % 0.0 in
03:02 7.2 °F 3.6 °F 1014.8 in Calm   9.7 mph 78 % 0.0 in
03:12 7.2 °F 3.6 °F 1014.8 in SSE 3.2 mph 8.0 mph 78 % 0.0 in
03:17 7.3 °F 3.5 °F 1014.8 in SE 3.2 mph 6.4 mph 77 % 0.0 in
03:22 7.3 °F 3.5 °F 1014.8 in SSE 3.2 mph 9.7 mph 77 % 0.0 in
03:27 7.3 °F 3.5 °F 1014.8 in ESE 3.2 mph 9.7 mph 77 % 0.0 in
03:32 7.3 °F 3.7 °F 1014.8 in ESE 4.8 mph 9.7 mph 78 % 0.0 in
03:37 7.3 °F 3.7 °F 1014.8 in ESE 6.4 mph 9.7 mph 78 % 0.0 in
03:42 7.3 °F 3.7 °F 1014.8 in ESE 4.8 mph 11.3 mph 78 % 0.0 in
03:47 7.2 °F 3.6 °F 1014.8 in ESE 3.2 mph 11.3 mph 78 % 0.0 in
03:57 7.3 °F 3.5 °F 1014.8 in SE 6.4 mph 11.3 mph 77 % 0.0 in
04:02 7.4 °F 3.6 °F 1014.8 in SE 4.8 mph 12.9 mph 77 % 0.0 in
04:17 7.3 °F 3.9 °F 1015.1 in ESE 6.4 mph 14.5 mph 79 % 0.0 in
04:22 7.2 °F 4.0 °F 1015.1 in SSE 1.6 mph 14.5 mph 80 % 0.0 in
04:27 7.1 °F 3.9 °F 1015.1 in SE 6.4 mph 14.5 mph 80 % 0.0 in
04:32 7.0 °F 4.0 °F 1015.1 in Calm   11.3 mph 81 % 0.0 in
04:37 6.9 °F 4.0 °F 1015.1 in ESE 4.8 mph 12.9 mph 82 % 0.0 in
04:42 6.9 °F 4.0 °F 1015.1 in SSE 1.6 mph 14.5 mph 82 % 0.0 in
04:47 6.9 °F 4.0 °F 1015.1 in SE 3.2 mph 14.5 mph 82 % 0.0 in
04:52 6.8 °F 4.1 °F 1015.1 in South 1.6 mph 14.5 mph 83 % 0.0 in
04:57 6.8 °F 4.1 °F 1015.5 in SSW 3.2 mph 14.5 mph 83 % 0.0 in
05:02 6.7 °F 4.0 °F 1015.1 in Calm   8.0 mph 83 % 0.0 in
05:07 6.7 °F 4.0 °F 1015.1 in SE 1.6 mph 8.0 mph 83 % 0.0 in
05:12 6.8 °F 4.3 °F 1015.1 in WSW 4.8 mph 8.0 mph 84 % 0.0 in
05:17 6.8 °F 4.3 °F 1015.1 in SSE 3.2 mph 8.0 mph 84 % 0.0 in
05:22 6.8 °F 4.3 °F 1015.5 in SE 1.6 mph 9.7 mph 84 % 0.3 in
05:27 6.8 °F 4.5 °F 1015.5 in SSE 4.8 mph 9.7 mph 85 % 0.3 in
05:32 6.8 °F 4.5 °F 1015.5 in South 1.6 mph 9.7 mph 85 % 0.3 in
05:42 6.7 °F 4.5 °F 1015.5 in SE 1.6 mph 6.4 mph 86 % 0.3 in
05:47 6.7 °F 4.5 °F 1015.5 in Calm   6.4 mph 86 % 0.3 in
05:52 6.7 °F 4.4 °F 1015.5 in Calm   6.4 mph 85 % 0.3 in
05:57 6.8 °F 4.5 °F 1015.5 in SE 1.6 mph 6.4 mph 85 % 0.3 in
06:02 6.7 °F 4.4 °F 1015.5 in SE 1.6 mph 6.4 mph 85 % 0.3 in
06:12 6.6 °F 4.4 °F 1015.8 in SSE 1.6 mph 11.3 mph 86 % 0.3 in
06:17 6.6 °F 4.4 °F 1015.8 in SW 6.4 mph 11.3 mph 86 % 0.3 in
06:22 6.5 °F 4.5 °F 1015.8 in South 1.6 mph 6.4 mph 87 % 0.0 in
06:32 6.4 °F 4.6 °F 1016.1 in SE 1.6 mph 6.4 mph 88 % 0.0 in
06:37 6.3 °F 4.5 °F 1016.1 in Calm   8.0 mph 88 % 0.5 in
06:42 6.2 °F 4.5 °F 1016.1 in ESE 1.6 mph 8.0 mph 89 % 0.5 in
06:47 6.1 °F 4.4 °F 1016.1 in Calm   8.0 mph 89 % 0.5 in
06:52 6.1 °F 4.4 °F 1016.1 in ESE 3.2 mph 4.8 mph 89 % 0.8 in
07:02 5.9 °F 4.4 °F 1016.1 in SE 3.2 mph 4.8 mph 90 % 0.8 in
07:12 5.8 °F 4.4 °F 1016.1 in SE 1.6 mph 6.4 mph 91 % 1.5 in
07:17 5.7 °F 4.3 °F 1016.1 in Calm   6.4 mph 91 % 1.5 in
07:22 5.6 °F 4.2 °F 1016.1 in Calm   4.8 mph 91 % 1.5 in
07:32 5.4 °F 4.2 °F 1016.1 in Calm   3.2 mph 92 % 1.5 in
07:37 5.4 °F 4.2 °F 1016.1 in ENE 1.6 mph 3.2 mph 92 % 1.5 in
07:42 5.5 °F 4.3 °F 1016.1 in Calm   3.2 mph 92 % 1.3 in
07:47 5.4 °F 4.2 °F 1016.1 in Calm   3.2 mph 92 % 1.3 in
07:52 5.3 °F 4.1 °F 1016.1 in Calm   3.2 mph 92 % 1.3 in
07:57 5.3 °F 4.3 °F 1016.1 in Calm   3.2 mph 93 % 1.3 in
08:02 5.4 °F 4.4 °F 1016.5 in SSE 3.2 mph 3.2 mph 93 % 1.3 in
08:07 5.4 °F 4.4 °F 1016.5 in Calm   3.2 mph 93 % 1.3 in
08:12 5.4 °F 4.4 °F 1016.5 in Calm   6.4 mph 93 % 1.3 in
08:17 5.4 °F 4.4 °F 1016.5 in Calm   6.4 mph 93 % 1.3 in
08:22 5.4 °F 4.4 °F 1016.8 in Calm   6.4 mph 93 % 1.5 in
08:32 5.4 °F 4.5 °F 1016.8 in Calm   3.2 mph 94 % 1.5 in
08:37 5.4 °F 4.5 °F 1016.8 in Calm   3.2 mph 94 % 1.5 in
08:42 5.4 °F 4.5 °F 1016.8 in Calm   3.2 mph 94 % 1.5 in
08:47 5.5 °F 4.6 °F 1016.8 in Calm   3.2 mph 94 % 1.5 in
08:52 5.5 °F 4.6 °F 1016.8 in Calm   3.2 mph 94 % 1.3 in
08:57 5.5 °F 4.6 °F 1017.2 in Calm   3.2 mph 94 % 1.3 in
09:02 5.4 °F 4.5 °F 1016.8 in Calm   3.2 mph 94 % 0.8 in
09:07 5.5 °F 4.6 °F 1017.2 in East 3.2 mph 3.2 mph 94 % 0.8 in
09:12 5.5 °F 4.6 °F 1017.2 in Calm   3.2 mph 94 % 0.5 in
09:17 5.4 °F 4.5 °F 1017.2 in Calm   3.2 mph 94 % 0.5 in
09:22 5.4 °F 4.5 °F 1017.2 in Calm   3.2 mph 94 % 0.3 in
09:32 5.4 °F 4.5 °F 1017.2 in Calm   3.2 mph 94 % 0.3 in
09:42 5.3 °F 4.4 °F 1017.2 in Calm   3.2 mph 94 % 0.5 in
09:47 5.5 °F 4.8 °F 1017.2 in Calm   3.2 mph 95 % 0.5 in
09:52 5.6 °F 4.9 °F 1017.2 in Calm   4.8 mph 95 % 0.5 in
09:57 5.6 °F 4.9 °F 1017.2 in Calm   4.8 mph 95 % 0.5 in
10:02 5.7 °F 5.0 °F 1017.2 in Calm   3.2 mph 95 % 0.5 in
10:12 5.8 °F 5.1 °F 1017.2 in Calm   3.2 mph 95 % 0.8 in
10:22 5.9 °F 5.2 °F 1017.5 in SE 1.6 mph 1.6 mph 95 % 0.8 in
10:32 5.9 °F 5.2 °F 1017.5 in SE 3.2 mph 3.2 mph 95 % 0.8 in
10:42 6.0 °F 5.3 °F 1017.5 in SSE 1.6 mph 3.2 mph 95 % 0.5 in
10:47 6.1 °F 5.4 °F 1017.5 in Calm   3.2 mph 95 % 0.5 in
10:52 6.1 °F 5.4 °F 1017.8 in SSE 3.2 mph 4.8 mph 95 % 0.5 in
10:57 6.1 °F 5.4 °F 1017.8 in SSW 1.6 mph 4.8 mph 95 % 0.5 in
11:02 6.0 °F 5.3 °F 1017.8 in SW 3.2 mph 8.0 mph 95 % 0.5 in
11:12 6.0 °F 5.3 °F 1017.8 in SW 1.6 mph 6.4 mph 95 % 0.3 in
11:22 6.1 °F 5.5 °F 1017.8 in WSW 1.6 mph 4.8 mph 96 % 0.0 in
11:27 6.1 °F 5.5 °F 1017.8 in SW 3.2 mph 4.8 mph 96 % 0.0 in
11:32 6.1 °F 5.5 °F 1017.8 in SW 1.6 mph 6.4 mph 96 % 0.0 in
11:37 6.2 °F 5.6 °F 1018.2 in Calm   6.4 mph 96 % 0.0 in
11:42 6.2 °F 5.6 °F 1018.2 in Calm   6.4 mph 96 % 0.0 in
11:47 6.2 °F 5.5 °F 1018.2 in Calm   6.4 mph 95 % 0.0 in
11:52 6.2 °F 5.5 °F 1018.2 in Calm   4.8 mph 95 % 0.3 in
12:02 6.1 °F 5.5 °F 1017.8 in SW 1.6 mph 3.2 mph 96 % 0.3 in
12:12 6.1 °F 5.4 °F 1017.8 in SSW 1.6 mph 3.2 mph 95 % 0.5 in
12:17 6.1 °F 5.5 °F 1017.8 in SSW 1.6 mph 4.8 mph 96 % 0.5 in
12:22 6.1 °F 5.5 °F 1018.2 in SSW 3.2 mph 4.8 mph 96 % 0.5 in
12:32 6.2 °F 5.6 °F 1018.2 in SSW 6.4 mph 6.4 mph 96 % 0.5 in
12:37 6.2 °F 5.6 °F 1018.2 in SSW 3.2 mph 9.7 mph 96 % 0.5 in
12:42 6.2 °F 5.6 °F 1018.2 in SSW 1.6 mph 9.7 mph 96 % 0.5 in
12:47 6.2 °F 5.6 °F 1018.2 in SSW 1.6 mph 8.0 mph 96 % 0.5 in
12:52 6.1 °F 5.5 °F 1017.8 in SW 1.6 mph 8.0 mph 96 % 0.5 in
12:57 6.1 °F 5.5 °F 1018.2 in SW 1.6 mph 6.4 mph 96 % 0.5 in
13:02 6.2 °F 5.6 °F 1017.8 in Calm   4.8 mph 96 % 0.8 in
13:07 6.2 °F 5.6 °F 1017.8 in SW 1.6 mph 4.8 mph 96 % 0.8 in
13:12 6.1 °F 5.5 °F 1017.8 in SW 3.2 mph 4.8 mph 96 % 0.8 in
13:22 6.2 °F 5.6 °F 1017.8 in South 3.2 mph 8.0 mph 96 % 1.0 in
13:27 6.2 °F 5.6 °F 1017.8 in SSW 3.2 mph 8.0 mph 96 % 1.3 in
13:32 6.1 °F 5.5 °F 1017.8 in SSW 3.2 mph 8.0 mph 96 % 1.3 in
13:37 6.1 °F 5.5 °F 1017.8 in SSW 1.6 mph 6.4 mph 96 % 1.3 in
13:42 6.2 °F 5.6 °F 1017.8 in SSW 1.6 mph 6.4 mph 96 % 1.3 in
13:47 6.2 °F 5.6 °F 1017.8 in South 1.6 mph 4.8 mph 96 % 1.3 in
13:52 6.2 °F 5.6 °F 1017.8 in SSE 1.6 mph 4.8 mph 96 % 1.3 in
13:57 6.3 °F 5.7 °F 1017.8 in Calm   4.8 mph 96 % 1.0 in
14:02 6.2 °F 5.6 °F 1017.8 in SSW 1.6 mph 4.8 mph 96 % 1.0 in
14:07 6.2 °F 5.6 °F 1017.8 in SSW 1.6 mph 4.8 mph 96 % 0.8 in
14:12 6.3 °F 5.9 °F 1017.8 in SSW 1.6 mph 4.8 mph 97 % 0.8 in
14:17 6.3 °F 5.7 °F 1017.8 in SW 3.2 mph 6.4 mph 96 % 0.8 in
14:22 6.3 °F 5.7 °F 1017.8 in SSW 4.8 mph 6.4 mph 96 % 0.5 in
14:27 6.4 °F 5.8 °F 1017.8 in SSW 3.2 mph 6.4 mph 96 % 0.8 in
14:32 6.4 °F 6.0 °F 1017.8 in SSW 1.6 mph 6.4 mph 97 % 0.8 in
14:37 6.6 °F 6.2 °F 1017.8 in SSW 3.2 mph 8.0 mph 97 % 0.5 in
14:42 6.6 °F 6.2 °F 1017.8 in South 1.6 mph 8.0 mph 97 % 0.8 in
14:47 6.6 °F 6.0 °F 1017.8 in South 3.2 mph 8.0 mph 96 % 0.8 in
14:52 6.6 °F 6.0 °F 1017.8 in SSW 3.2 mph 8.0 mph 96 % 0.8 in
14:57 6.6 °F 6.0 °F 1017.8 in SSW 1.6 mph 3.2 mph 96 % 0.8 in
15:02 6.6 °F 6.2 °F 1017.8 in SSW 4.8 mph 4.8 mph 97 % 0.8 in
15:12 6.7 °F 6.3 °F 1018.2 in SSW 3.2 mph 6.4 mph 97 % 0.8 in
15:17 6.7 °F 6.3 °F 1018.2 in South 3.2 mph 8.0 mph 97 % 0.8 in
15:22 6.7 °F 6.3 °F 1018.2 in SW 4.8 mph 8.0 mph 97 % 0.5 in
15:27 6.7 °F 6.3 °F 1018.5 in SW 3.2 mph 9.7 mph 97 % 0.5 in
15:32 6.7 °F 6.3 °F 1018.5 in SW 3.2 mph 9.7 mph 97 % 0.5 in
15:37 6.7 °F 6.3 °F 1018.5 in SW 6.4 mph 6.4 mph 97 % 0.5 in
15:42 6.8 °F 6.4 °F 1018.5 in SW 6.4 mph 8.0 mph 97 % 0.5 in
15:47 6.7 °F 6.3 °F 1018.5 in WSW 4.8 mph 8.0 mph 97 % 0.5 in
15:52 6.8 °F 6.4 °F 1018.5 in SW 4.8 mph 8.0 mph 97 % 0.5 in
15:57 6.7 °F 6.3 °F 1018.5 in SSW 3.2 mph 9.7 mph 97 % 0.3 in
16:02 6.7 °F 6.3 °F 1018.5 in SSW 1.6 mph 9.7 mph 97 % 0.3 in
16:07 6.7 °F 6.3 °F 1018.8 in SW 1.6 mph 8.0 mph 97 % 0.3 in
16:12 6.7 °F 6.3 °F 1018.8 in SW 3.2 mph 8.0 mph 97 % 0.3 in
16:17 6.7 °F 6.3 °F 1018.8 in SSW 4.8 mph 8.0 mph 97 % 0.0 in
16:22 6.8 °F 6.4 °F 1018.8 in SW 6.4 mph 6.4 mph 97 % 0.0 in
16:27 6.8 °F 6.4 °F 1018.8 in SW 8.0 mph 8.0 mph 97 % 0.0 in
16:32 6.8 °F 6.4 °F 1018.8 in SW 3.2 mph 12.9 mph 97 % 0.0 in
16:37 6.8 °F 6.2 °F 1018.8 in SW 4.8 mph 12.9 mph 96 % 0.0 in
16:42 6.8 °F 6.2 °F 1019.2 in SW 8.0 mph 12.9 mph 96 % 0.0 in
16:47 6.8 °F 6.2 °F 1019.2 in SSW 4.8 mph 12.9 mph 96 % 0.0 in
16:52 6.7 °F 6.1 °F 1019.2 in SW 3.2 mph 9.7 mph 96 % 0.0 in
16:57 6.6 °F 6.0 °F 1019.2 in SW 3.2 mph 9.7 mph 96 % 0.0 in
17:02 6.6 °F 6.0 °F 1019.2 in SW 3.2 mph 8.0 mph 96 % 0.0 in
17:07 6.6 °F 6.0 °F 1019.2 in SW 3.2 mph 6.4 mph 96 % 0.0 in
17:12 6.6 °F 6.0 °F 1019.2 in SW 3.2 mph 6.4 mph 96 % 0.0 in
17:17 6.5 °F 5.9 °F 1019.2 in SW 6.4 mph 6.4 mph 96 % 0.0 in
17:22 6.5 °F 5.9 °F 1019.2 in SW 4.8 mph 6.4 mph 96 % 0.0 in
17:27 6.4 °F 5.8 °F 1019.2 in SW 3.2 mph 8.0 mph 96 % 0.0 in
17:32 6.3 °F 5.7 °F 1019.5 in SW 3.2 mph 8.0 mph 96 % 0.0 in
17:37 6.3 °F 5.7 °F 1019.5 in SSW 3.2 mph 8.0 mph 96 % 0.0 in
17:42 6.2 °F 5.6 °F 1019.5 in SW 3.2 mph 4.8 mph 96 % 0.0 in
17:52 6.2 °F 5.8 °F 1019.5 in SSW 3.2 mph 6.4 mph 97 % 0.0 in
17:57 6.2 °F 5.6 °F 1019.9 in WSW 3.2 mph 9.7 mph 96 % 0.0 in
18:02 6.1 °F 5.5 °F 1019.9 in SW 3.2 mph 9.7 mph 96 % 0.0 in
18:12 6.1 °F 5.7 °F 1019.9 in SW 3.2 mph 9.7 mph 97 % 0.0 in
18:17 6.1 °F 5.7 °F 1019.9 in SW 3.2 mph 6.4 mph 97 % 0.0 in
18:22 6.0 °F 5.6 °F 1019.9 in WSW 3.2 mph 6.4 mph 97 % 0.0 in
18:32 5.8 °F 5.2 °F 1020.2 in Calm   6.4 mph 96 % 0.0 in
18:42 5.1 °F 4.4 °F 1020.2 in Calm   3.2 mph 95 % 0.0 in
18:47 4.8 °F 4.2 °F 1020.2 in Calm     96 % 0.0 in
18:57 4.6 °F 4.0 °F 1020.2 in Calm     96 % 0.0 in
19:02 4.6 °F 4.2 °F 1020.2 in Calm     97 % 0.0 in
19:07 4.6 °F 4.2 °F 1020.5 in Calm     97 % 0.0 in
19:12 4.6 °F 4.2 °F 1020.5 in Calm     97 % 0.0 in
19:17 4.3 °F 3.7 °F 1020.5 in Calm     96 % 0.0 in
19:22 4.0 °F 3.4 °F 1020.5 in Calm     96 % 0.0 in
19:27 3.7 °F 3.1 °F 1020.5 in Calm     96 % 0.0 in
19:32 3.5 °F 2.9 °F 1020.5 in Calm     96 % 0.0 in
19:37 3.3 °F 2.7 °F 1020.5 in Calm     96 % 0.0 in
19:42 3.2 °F 2.6 °F 1020.5 in Calm     96 % 0.0 in
19:47 3.1 °F 2.5 °F 1020.5 in Calm     96 % 0.0 in
19:52 2.9 °F 2.3 °F 1020.5 in Calm     96 % 0.0 in
19:57 2.7 °F 2.1 °F 1020.5 in Calm     96 % 0.0 in
20:02 2.6 °F 2.0 °F 1020.5 in Calm     96 % 0.0 in
20:07 2.4 °F 1.8 °F 1020.5 in Calm     96 % 0.0 in
20:12 2.3 °F 1.7 °F 1020.9 in Calm     96 % 0.0 in
20:17 2.2 °F 1.8 °F 1020.5 in Calm     97 % 0.0 in
20:22 2.4 °F 2.0 °F 1020.9 in Calm     97 % 0.0 in
20:27 2.6 °F 2.2 °F 1020.9 in Calm     97 % 0.0 in
20:32 2.5 °F 2.1 °F 1020.9 in Calm     97 % 0.0 in
20:37 2.6 °F 2.2 °F 1020.9 in Calm     97 % 0.0 in
20:42 2.6 °F 2.2 °F 1020.9 in Calm     97 % 0.0 in
20:47 2.6 °F 2.2 °F 1020.9 in Calm     97 % 0.3 in
20:52 2.5 °F 2.1 °F 1021.2 in Calm     97 % 0.3 in
21:02 2.4 °F 2.0 °F 1021.2 in Calm     97 % 0.3 in
21:07 2.3 °F 1.9 °F 1021.2 in Calm     97 % 0.3 in
21:12 2.2 °F 1.8 °F 1021.2 in Calm     97 % 0.3 in
21:17 2.1 °F 1.7 °F 1021.2 in Calm     97 % 0.3 in
21:22 1.8 °F 1.4 °F 1021.2 in Calm     97 % 0.3 in
21:27 1.8 °F 1.4 °F 1021.2 in Calm     97 % 0.3 in
21:37 1.7 °F 1.3 °F 1021.6 in Calm     97 % 0.0 in
21:47 1.4 °F 1.0 °F 1021.6 in Calm     97 % 0.0 in
21:52 1.4 °F 1.0 °F 1021.6 in Calm     97 % 0.0 in
21:57 1.6 °F 1.2 °F 1021.6 in Calm     97 % 0.0 in
22:02 1.3 °F 0.9 °F 1021.6 in Calm     97 % 0.0 in
22:12 0.9 °F 0.5 °F 1021.6 in Calm     97 % 0.0 in
22:17 0.8 °F 0.4 °F 1021.6 in Calm     97 % 0.0 in
22:22 0.6 °F 0.2 °F 1021.6 in Calm     97 % 0.0 in
22:27 0.6 °F 0.2 °F 1021.6 in Calm     97 % 0.0 in
22:32 0.5 °F 0.1 °F 1021.6 in Calm     97 % 0.0 in
22:37 0.4 °F 0.0 °F 1021.6 in Calm     97 % 0.0 in
22:42 0.4 °F 0.0 °F 1021.9 in Calm     97 % 0.0 in
22:47 0.4 °F 0.0 °F 1021.6 in Calm     97 % 0.0 in
22:52 0.4 °F 0.0 °F 1021.9 in Calm     97 % 0.0 in
22:57 0.5 °F 0.1 °F 1021.9 in Calm     97 % 0.0 in
23:02 0.4 °F 0.0 °F 1021.9 in Calm     97 % 0.0 in
23:07 0.2 °F -0.2 °F 1021.9 in Calm     97 % 0.0 in
23:12 0.1 °F -0.3 °F 1021.9 in Calm     97 % 0.0 in
23:17 -0.1 °F -0.5 °F 1021.9 in Calm     97 % 0.0 in
23:22 -0.1 °F -0.5 °F 1021.9 in Calm     97 % 0.0 in
23:37 -0.1 °F -0.5 °F 1021.9 in Calm     97 % 0.0 in
23:42 -0.2 °F -0.6 °F 1021.9 in Calm     97 % 0.0 in
23:52 -0.4 °F -0.8 °F 1021.9 in Calm   1.6 mph 97 % 0.0 in
23:57 -0.4 °F -0.8 °F 1021.9 in Calm   1.6 mph 97 % 0.0 in
Meteo18
Compliments of Weather Underground - 4 mb

Script developed by  Jim McMurry - jmcmurry@mwt.net Adapted for the template by  Wim van der Kuil - Leuven-Template.eu

You find our weather info also at:

European Weather Network

Weather Underground

Equipment we use:

Weather-station
Davis Vue

Weather-program
Meteobridge

Weather-server
Raspberry PI 2 B+

Provider
1 and 1

Davis Vue

Meteobridge

Raspberry PI 2 B+

1 and 1